Satellite-Ground Cal/Val Site Overpasses Predictions

Prediction of Satellite NPP Overpassing Cal/Val Site: Antarctic Dome C

Ground Cal/Val Site Location: Latitude: -75.10, Longitude: 123.35; Satellite-Ground Site NADIR distance within 100 km.

Table of predicted overpasses for the next 14.0 days since TLE Epoch: 8/24/2024
Interval Starting Time Ending Time Minimum Distance Time Minimum Distance (km)
1 08/25/2024 07:31:57 08/25/2024 07:32:27 08/25/2024 07:32:12 4.63
2 08/28/2024 14:55:22 08/28/2024 14:55:51 08/28/2024 14:55:37 24.92
3 08/29/2024 14:36:39 08/29/2024 14:36:55 08/29/2024 14:36:47 82.53
4 08/30/2024 07:38:11 08/30/2024 07:38:38 08/30/2024 07:38:25 40.29
5 08/31/2024 07:19:25 08/31/2024 07:19:45 08/31/2024 07:19:35 69.54
6 09/02/2024 15:01:39 09/02/2024 15:02:02 09/02/2024 15:01:50 61.61
7 09/03/2024 14:42:46 09/03/2024 14:43:12 09/03/2024 14:42:59 47.80
8 09/04/2024 07:44:28 09/04/2024 07:44:47 09/04/2024 07:44:38 75.19
